Showing default

IRIDIUM 130, 43073

Orbit data source: Space-Track

IRIDIUM 130, 43073 is a payload satellite owned by Iridium (US) in LEO that was launched on Sat, 23 Dec 2017 UTC via an FALCON 9 launch vehicle from the Air Force Western Test Range (AFWTR). Payload-class satellites include a variety of spacecraft equipped with specific instruments for various scientific and technological missions. These include communications satellites like Starlink; space stations such as the ISS; scientific satellites like the Hubble; Earth observation satellites from companies like Planet Labs, Umbra, and HawkEye 360; GPS; miniature CubeSats for education and research; and military/defense satellites.

Loading next visibility...
Identifier
43073, 2017-083D
Orbit
LEO
Country
Flag of USUS
Related business
Manufacturer
OATK SSG Gilbert
Mission
Operational Commercial Communications
Bus & Motor
ELITEBUS, Unknown motor
Mass
860 kg wet, 700 kg dry
Launch date (UTC)
2017-12-23 (8 years ago)
Launch vehicle
FALCON 9
Launch site
Air Force Western Test Range (AFWTR)
Object type
Payload
Rocket body
Debris
Shape & HBR
Trap Box + 2 Pan, 4.7 m
Radar Cross Section
14.423 m², Large (>1 m²)

Expand to show TLE details & history
Last TLE update: 23 hours ago

TLE from 23 hours ago
0 IRIDIUM 130
1 43073U 17083D   25260.03952738  .00000011  00000-0 -31126-5 0  9999
2 43073  86.3914  76.4362 0002398  86.8632 273.2839 14.34217530404960
Epoch: 2025-09-17T00:56Z
TLE epoch observation values (Epoch: 2025-09-17T00:56:55.165Z)
Latitude
0.00005°
Longitude
65.98515°
Altitude
780.621 km
Speed
7.464 km/s
True Right ascension
05h 05m 44s
True Declination
0° 00' 00"
Sunlit
Object was in daylight at epoch
Visualization orbit readout
Latitude
Unknown
Longitude
Unknown
Altitude
Unknown
Speed
Unknown
Apparent Right ascension
Unknown
Apparent Declination
Unknown
Sunlit
N/A
Visualization observer readout
Local Sidereal Time
16:16:05
Azimuth
Unknown
Elevation
Unknown
Doppler factor
Unknown
Orbital elements
Apogee altitude
776.348 km
Perigee altitude
772.917 km
Semi-major axis
7,152.769 km
Eccentricity
0.00024
Inclination
86.3914°
RAAN
76.4362°
Arg. of periapsis
86.8632°
True anomaly
273.25647°
Mean anomaly
273.2839°
Eccentric anomaly
273.27018°
Mean motion
3.58783 °/min
Orbital period
100.34 mins
BSTAR
-0.0000031126
Loading maneuver chart data...
Computing Atmospheric mass density...
Loading historical data...
Loading historical data...
Loading historical data...
Loading historical data...
Loading historical data...
Loading historical data...
Loading historical data...

Documentation

Showing up to 5 results
|